UAL2039 KLAS-KLAX

Flight info

Callsign UAL2039
Flight time 0h 37m
Altitude 24000
Route RADYR2 BLAQQ SHTNR ANJLL4
Aircraft A21N/M-SDE2E3FGHIRWXY/LB1

Departure

Time 2026-05-07 06:35
Airport Harry Reid International Airport (KLAS)

Arrival

Time 2026-05-07 07:13
Airport Los Angeles International Airport (KLAX)
Time Latitude Longitude Altitude Speed Heading
2026-05-07 05:49 36.08045 -115.13880 2191 ft 0 kts 344°
2026-05-07 06:16 36.08041 -115.13879 2191 ft 2 kts 344°
2026-05-07 06:16 36.08024 -115.13873 2193 ft 3 kts 344°
2026-05-07 06:17 36.08008 -115.13867 2192 ft 3 kts 344°
2026-05-07 06:17 36.07998 -115.13864 2192 ft 2 kts 345°
2026-05-07 06:18 36.07982 -115.13856 2192 ft 3 kts 304°
2026-05-07 06:18 36.07978 -115.13841 2195 ft 3 kts 241°
2026-05-07 06:18 36.07984 -115.13830 2192 ft 2 kts 225°
2026-05-07 06:18 36.07995 -115.13816 2194 ft 1 kts 225°
2026-05-07 06:19 36.07997 -115.13814 2194 ft 0 kts 225°
2026-05-07 06:25 36.07988 -115.13825 2192 ft 4 kts 225°
2026-05-07 06:26 36.07971 -115.13846 2193 ft 3 kts 225°
2026-05-07 06:26 36.07956 -115.13864 2193 ft 3 kts 225°
2026-05-07 06:26 36.07943 -115.13881 2193 ft 5 kts 225°
2026-05-07 06:26 36.07917 -115.13913 2195 ft 7 kts 225°
2026-05-07 06:27 36.07883 -115.13947 2193 ft 6 kts 203°
2026-05-07 06:27 36.07850 -115.13947 2193 ft 4 kts 162°
2026-05-07 06:27 36.07825 -115.13910 2193 ft 7 kts 99°
2026-05-07 06:27 36.07827 -115.13856 2195 ft 6 kts 88°
2026-05-07 06:28 36.07828 -115.13787 2195 ft 12 kts 89°
2026-05-07 06:28 36.07828 -115.13686 2195 ft 11 kts 90°
2026-05-07 06:28 36.07828 -115.13594 2195 ft 10 kts 90°
2026-05-07 06:28 36.07828 -115.13510 2195 ft 10 kts 90°
2026-05-07 06:29 36.07828 -115.13430 2193 ft 9 kts 90°
2026-05-07 06:29 36.07828 -115.13314 2195 ft 16 kts 90°
2026-05-07 06:29 36.07828 -115.13175 2195 ft 16 kts 90°
2026-05-07 06:29 36.07828 -115.13044 2195 ft 15 kts 90°
2026-05-07 06:30 36.07828 -115.12920 2195 ft 14 kts 90°
2026-05-07 06:30 36.07828 -115.12804 2195 ft 13 kts 90°
2026-05-07 06:30 36.07829 -115.12685 2194 ft 18 kts 90°
2026-05-07 06:30 36.07829 -115.12482 2194 ft 24 kts 89°
2026-05-07 06:31 36.07829 -115.12310 2191 ft 12 kts 90°
2026-05-07 06:31 36.07814 -115.12247 2192 ft 6 kts 127°
2026-05-07 06:31 36.07785 -115.12202 2192 ft 8 kts 129°
2026-05-07 06:31 36.07758 -115.12162 2193 ft 0 kts 129°
2026-05-07 06:32 36.07755 -115.12157 2193 ft 4 kts 129°
2026-05-07 06:32 36.07735 -115.12132 2193 ft 8 kts 146°
2026-05-07 06:33 36.07686 -115.12125 2195 ft 6 kts 181°
2026-05-07 06:33 36.07651 -115.12140 2193 ft 8 kts 229°
2026-05-07 06:33 36.07643 -115.12212 2193 ft 0 kts 270°
2026-05-07 06:34 36.07643 -115.12245 2192 ft 20 kts 270°
2026-05-07 06:34 36.07642 -115.12696 2192 ft 85 kts 270°
2026-05-07 06:34 36.07640 -115.13712 2196 ft 151 kts 270°
2026-05-07 06:35 36.07637 -115.15236 2226 ft 197 kts 269°
2026-05-07 06:35 36.07667 -115.16936 2819 ft 199 kts 270°
2026-05-07 06:35 36.07704 -115.18686 3396 ft 209 kts 271°
2026-05-07 06:35 36.07739 -115.20517 3973 ft 217 kts 271°
2026-05-07 06:36 36.07773 -115.22456 4318 ft 234 kts 271°
2026-05-07 06:36 36.07807 -115.24554 4550 ft 253 kts 271°
2026-05-07 06:36 36.07840 -115.26762 5057 ft 259 kts 271°
2026-05-07 06:36 36.07539 -115.28957 5591 ft 264 kts 243°
2026-05-07 06:37 36.06306 -115.30670 5970 ft 276 kts 210°
2026-05-07 06:37 36.04448 -115.31281 6456 ft 283 kts 175°
2026-05-07 06:37 36.02522 -115.30803 7042 ft 284 kts 167°
2026-05-07 06:37 36.00545 -115.30537 7673 ft 288 kts 179°
2026-05-07 06:38 35.98530 -115.30514 8297 ft 291 kts 179°
2026-05-07 06:38 35.96487 -115.30605 8955 ft 295 kts 184°
2026-05-07 06:38 35.94456 -115.30862 9609 ft 299 kts 187°
2026-05-07 06:38 35.92375 -115.31236 10257 ft 305 kts 189°
2026-05-07 06:39 35.90217 -115.31689 10574 ft 323 kts 190°
2026-05-07 06:39 35.87942 -115.32209 10842 ft 341 kts 190°
2026-05-07 06:39 35.85558 -115.32774 11097 ft 358 kts 191°
2026-05-07 06:39 35.83059 -115.33375 11315 ft 374 kts 190°
2026-05-07 06:40 35.80453 -115.34007 11532 ft 389 kts 191°
2026-05-07 06:40 35.77758 -115.34666 11793 ft 399 kts 191°
2026-05-07 06:40 35.75050 -115.35329 12191 ft 405 kts 191°
2026-05-07 06:40 35.72273 -115.36009 12662 ft 409 kts 191°
2026-05-07 06:41 35.69470 -115.36695 13150 ft 412 kts 191°
2026-05-07 06:41 35.66639 -115.37387 13665 ft 416 kts 191°
2026-05-07 06:41 35.63787 -115.38084 14152 ft 419 kts 191°
2026-05-07 06:41 35.60898 -115.38626 14597 ft 421 kts 182°
2026-05-07 06:42 35.57964 -115.38613 15081 ft 423 kts 176°
2026-05-07 06:42 35.55011 -115.38412 15545 ft 426 kts 175°
2026-05-07 06:42 35.52048 -115.38183 15986 ft 428 kts 175°
2026-05-07 06:42 35.49063 -115.37954 16421 ft 431 kts 175°
2026-05-07 06:43 35.46052 -115.37874 16836 ft 435 kts 182°
2026-05-07 06:43 35.43055 -115.38536 17230 ft 440 kts 197°
2026-05-07 06:43 35.40232 -115.40014 17629 ft 443 kts 206°
2026-05-07 06:43 35.37482 -115.41755 17986 ft 447 kts 207°
2026-05-07 06:44 35.34718 -115.43549 18343 ft 450 kts 207°
2026-05-07 06:44 35.31977 -115.45324 18662 ft 453 kts 207°
2026-05-07 06:44 35.29178 -115.47125 18994 ft 455 kts 207°
2026-05-07 06:44 35.26366 -115.48927 19324 ft 457 kts 207°
2026-05-07 06:45 35.23538 -115.50734 19657 ft 459 kts 207°
2026-05-07 06:45 35.20693 -115.52548 20010 ft 461 kts 207°
2026-05-07 06:45 35.17841 -115.54364 20345 ft 464 kts 207°
2026-05-07 06:45 35.14970 -115.56200 20679 ft 466 kts 208°
2026-05-07 06:46 35.12277 -115.58322 21010 ft 469 kts 219°
2026-05-07 06:46 35.09879 -115.61035 21371 ft 471 kts 225°
2026-05-07 06:46 35.07605 -115.63919 21724 ft 473 kts 227°
2026-05-07 06:46 35.05341 -115.66841 22044 ft 475 kts 227°
2026-05-07 06:47 35.03062 -115.69776 22389 ft 478 kts 226°
2026-05-07 06:47 35.00765 -115.72722 22731 ft 480 kts 226°
2026-05-07 06:47 34.98452 -115.75682 23064 ft 482 kts 226°
2026-05-07 06:47 34.96132 -115.78643 23374 ft 484 kts 226°
2026-05-07 06:48 34.93797 -115.81617 23685 ft 486 kts 226°
2026-05-07 06:48 34.91451 -115.84602 23926 ft 488 kts 226°
2026-05-07 06:48 34.89096 -115.87595 24028 ft 488 kts 226°
2026-05-07 06:48 34.86744 -115.90583 24028 ft 489 kts 226°
2026-05-07 06:49 34.84384 -115.93576 24029 ft 489 kts 226°
2026-05-07 06:49 34.82029 -115.96561 24028 ft 489 kts 226°
2026-05-07 06:49 34.79697 -115.99514 24035 ft 489 kts 226°
2026-05-07 06:49 34.77340 -116.02499 24024 ft 490 kts 226°
2026-05-07 06:50 34.74987 -116.05495 24023 ft 490 kts 226°
2026-05-07 06:50 34.72632 -116.08497 24024 ft 490 kts 226°
2026-05-07 06:50 34.70283 -116.11489 24023 ft 489 kts 226°
2026-05-07 06:50 34.67931 -116.14482 24019 ft 489 kts 226°
2026-05-07 06:51 34.66373 -116.16463 24025 ft 489 kts 226°
2026-05-07 06:51 34.64019 -116.19454 24026 ft 489 kts 226°
2026-05-07 06:51 34.61663 -116.22445 24024 ft 489 kts 226°
2026-05-07 06:51 34.59313 -116.25425 24027 ft 489 kts 226°
2026-05-07 06:52 34.56955 -116.28413 24030 ft 490 kts 227°
2026-05-07 06:52 34.54595 -116.31401 24028 ft 490 kts 227°
2026-05-07 06:52 34.52234 -116.34387 24027 ft 490 kts 227°
2026-05-07 06:52 34.49875 -116.37368 24026 ft 490 kts 226°
2026-05-07 06:53 34.47515 -116.40348 24036 ft 490 kts 227°
2026-05-07 06:53 34.45153 -116.43328 24031 ft 491 kts 227°
2026-05-07 06:53 34.42823 -116.46354 24026 ft 491 kts 231°
2026-05-07 06:53 34.40885 -116.49740 24035 ft 489 kts 242°
2026-05-07 06:54 34.39300 -116.53376 24038 ft 488 kts 245°
2026-05-07 06:54 34.37791 -116.57057 24026 ft 488 kts 246°
2026-05-07 06:54 34.36290 -116.60740 24034 ft 488 kts 246°
2026-05-07 06:54 34.34794 -116.64394 24035 ft 476 kts 245°
2026-05-07 06:55 34.33350 -116.67913 24033 ft 457 kts 246°
2026-05-07 06:55 34.32003 -116.71255 24035 ft 439 kts 246°
2026-05-07 06:55 34.30689 -116.74527 24041 ft 428 kts 246°
2026-05-07 06:55 34.29391 -116.77766 24052 ft 428 kts 246°
2026-05-07 06:56 34.28087 -116.81013 24057 ft 429 kts 246°
2026-05-07 06:56 34.26780 -116.84260 24059 ft 429 kts 246°
2026-05-07 06:56 34.25473 -116.87503 24051 ft 430 kts 246°
2026-05-07 06:56 34.24162 -116.90749 24060 ft 428 kts 246°
2026-05-07 06:57 34.22855 -116.93983 24061 ft 427 kts 246°
2026-05-07 06:57 34.21562 -116.97213 24061 ft 426 kts 249°
2026-05-07 06:57 34.20494 -117.00555 24069 ft 424 kts 254°
2026-05-07 06:57 34.19565 -117.03931 24071 ft 424 kts 255°
2026-05-07 06:58 34.18654 -117.07327 24076 ft 424 kts 255°
2026-05-07 06:58 34.17742 -117.10717 24069 ft 424 kts 255°
2026-05-07 06:58 34.16829 -117.14108 24080 ft 425 kts 255°
2026-05-07 06:58 34.15907 -117.17496 24060 ft 424 kts 254°
2026-05-07 06:59 34.14981 -117.20873 24125 ft 423 kts 254°
2026-05-07 06:59 34.14055 -117.24240 24127 ft 423 kts 254°
2026-05-07 06:59 34.13128 -117.27609 24129 ft 423 kts 254°
2026-05-07 06:59 34.12199 -117.30977 24129 ft 423 kts 254°
2026-05-07 07:00 34.11283 -117.34298 24126 ft 423 kts 254°
2026-05-07 07:00 34.10363 -117.37698 24028 ft 430 kts 255°
2026-05-07 07:00 34.09482 -117.41161 23304 ft 434 kts 256°
2026-05-07 07:00 34.08611 -117.44661 22627 ft 433 kts 257°
2026-05-07 07:01 34.07777 -117.48091 22387 ft 420 kts 257°
2026-05-07 07:01 34.06960 -117.51423 22142 ft 408 kts 257°
2026-05-07 07:01 34.06149 -117.54668 21786 ft 401 kts 256°
2026-05-07 07:01 34.05342 -117.57871 21235 ft 399 kts 256°
2026-05-07 07:02 34.04532 -117.61062 20707 ft 396 kts 256°
2026-05-07 07:02 34.03724 -117.64231 20202 ft 393 kts 256°
2026-05-07 07:02 34.02920 -117.67372 19706 ft 391 kts 256°
2026-05-07 07:02 34.02259 -117.70514 19412 ft 379 kts 264°
2026-05-07 07:03 34.01899 -117.73583 19367 ft 361 kts 266°
2026-05-07 07:03 34.01606 -117.76548 19043 ft 355 kts 267°
2026-05-07 07:03 34.01323 -117.79514 18529 ft 356 kts 267°
2026-05-07 07:03 34.01044 -117.82442 18029 ft 354 kts 266°
2026-05-07 07:04 34.00760 -117.85384 17547 ft 352 kts 266°
2026-05-07 07:04 34.00476 -117.88309 17067 ft 350 kts 266°
2026-05-07 07:04 34.00264 -117.91218 16569 ft 345 kts 276°
2026-05-07 07:04 34.00394 -117.94096 16086 ft 344 kts 272°
2026-05-07 07:05 34.00135 -117.96962 15608 ft 344 kts 261°
2026-05-07 07:05 33.99610 -117.99762 15131 ft 340 kts 259°
2026-05-07 07:05 33.99066 -118.02589 13001 ft 368 kts 259°
2026-05-07 07:05 33.98518 -118.05784 10217 ft 410 kts 261°
2026-05-07 07:06 33.97952 -118.09238 8880 ft 410 kts 261°
2026-05-07 07:06 33.97490 -118.12589 7719 ft 399 kts 262°
2026-05-07 07:06 33.97096 -118.15808 6927 ft 378 kts 266°
2026-05-07 07:06 33.96938 -118.18905 6046 ft 362 kts 270°
2026-05-07 07:07 33.96911 -118.21847 5160 ft 348 kts 271°
2026-05-07 07:07 33.96928 -118.24708 4286 ft 335 kts 272°
2026-05-07 07:07 33.96970 -118.27465 3434 ft 324 kts 270°
2026-05-07 07:07 33.96869 -118.30134 2766 ft 309 kts 272°
2026-05-07 07:08 33.97144 -118.32545 2777 ft 275 kts 288°
2026-05-07 07:08 33.97916 -118.34563 2806 ft 264 kts 306°
2026-05-07 07:08 33.99188 -118.36176 2561 ft 268 kts 325°
2026-05-07 07:08 34.00821 -118.37182 2101 ft 263 kts 347°
2026-05-07 07:09 34.02590 -118.37304 2062 ft 244 kts 14°
2026-05-07 07:09 34.04007 -118.36420 1906 ft 224 kts 47°
2026-05-07 07:09 34.04688 -118.34813 1519 ft 215 kts 84°
2026-05-07 07:09 34.04394 -118.33112 1167 ft 205 kts 124°
2026-05-07 07:10 34.03334 -118.32198 1085 ft 176 kts 173°
2026-05-07 07:10 34.02323 -118.32651 1061 ft 169 kts 237°
2026-05-07 07:10 34.01754 -118.33975 1304 ft 187 kts 226°
2026-05-07 07:10 34.00606 -118.34846 1326 ft 199 kts 202°
2026-05-07 07:11 33.99363 -118.35241 1147 ft 176 kts 189°
2026-05-07 07:11 33.98182 -118.35453 827 ft 169 kts 189°
2026-05-07 07:11 33.96961 -118.35693 817 ft 184 kts 193°
2026-05-07 07:11 33.96014 -118.36430 853 ft 151 kts 238°
2026-05-07 07:12 33.95567 -118.37561 491 ft 149 kts 249°
2026-05-07 07:12 33.95352 -118.38712 307 ft 136 kts 265°
2026-05-07 07:12 33.95242 -118.39867 162 ft 135 kts 264°
2026-05-07 07:12 33.95137 -118.40909 97 ft 100 kts 263°
2026-05-07 07:13 33.95085 -118.41379 98 ft 14 kts 263°
2026-05-07 07:13 33.95083 -118.41405 96 ft 5 kts 265°
2026-05-07 07:13 33.95076 -118.41511 98 ft 14 kts 264°
2026-05-07 07:13 33.95060 -118.41671 99 ft 23 kts 262°
2026-05-07 07:14 33.95041 -118.41853 97 ft 21 kts 263°
2026-05-07 07:14 33.95019 -118.42023 98 ft 20 kts 253°
2026-05-07 07:14 33.94961 -118.42164 98 ft 18 kts 231°
2026-05-07 07:14 33.94876 -118.42261 101 ft 16 kts 212°
2026-05-07 07:15 33.94780 -118.42282 99 ft 14 kts 175°
2026-05-07 07:15 33.94684 -118.42269 97 ft 15 kts 172°
2026-05-07 07:15 33.94620 -118.42248 97 ft 7 kts 135°
2026-05-07 07:15 33.94609 -118.42191 97 ft 7 kts 84°
2026-05-07 07:16 33.94615 -118.42133 99 ft 7 kts 83°
2026-05-07 07:16 33.94620 -118.42075 96 ft 7 kts 83°
2026-05-07 07:16 33.94626 -118.42017 97 ft 7 kts 83°
2026-05-07 07:16 33.94625 -118.41962 97 ft 6 kts 111°
2026-05-07 07:17 33.94596 -118.41925 97 ft 6 kts 150°
2026-05-07 07:17 33.94520 -118.41910 97 ft 14 kts 173°
2026-05-07 07:17 33.94428 -118.41896 98 ft 13 kts 174°
2026-05-07 07:17 33.94342 -118.41883 98 ft 12 kts 172°
2026-05-07 07:18 33.94259 -118.41870 96 ft 12 kts 173°
2026-05-07 07:18 33.94179 -118.41859 97 ft 11 kts 174°
2026-05-07 07:18 33.94104 -118.41848 98 ft 11 kts 173°
2026-05-07 07:18 33.94015 -118.41835 97 ft 20 kts 173°
2026-05-07 07:19 33.93880 -118.41815 97 ft 17 kts 173°
2026-05-07 07:19 33.93850 -118.41810 96 ft 0 kts 173°
2026-05-07 07:19 33.93807 -118.41799 98 ft 8 kts 152°
2026-05-07 07:19 33.93784 -118.41743 98 ft 8 kts 89°
2026-05-07 07:20 33.93791 -118.41671 97 ft 11 kts 83°
2026-05-07 07:20 33.93807 -118.41509 97 ft 25 kts 83°
2026-05-07 07:20 33.93828 -118.41303 98 ft 24 kts 83°
2026-05-07 07:20 33.93849 -118.41107 96 ft 23 kts 83°
2026-05-07 07:21 33.93867 -118.40921 99 ft 22 kts 83°
2026-05-07 07:21 33.93886 -118.40743 98 ft 21 kts 82°
2026-05-07 07:21 33.93903 -118.40575 96 ft 20 kts 84°
2026-05-07 07:21 33.93921 -118.40416 97 ft 19 kts 82°
2026-05-07 07:22 33.93937 -118.40264 99 ft 18 kts 84°
2026-05-07 07:22 33.93948 -118.40125 97 ft 4 kts 81°
2026-05-07 07:22 33.93951 -118.40102 97 ft 14 kts 82°
2026-05-07 07:22 33.93969 -118.39922 99 ft 19 kts 83°
2026-05-07 07:23 33.93989 -118.39838 97 ft 7 kts 47°
2026-05-07 07:23 33.94054 -118.39825 97 ft 13 kts
2026-05-07 07:23 33.94148 -118.39834 98 ft 10 kts 344°
2026-05-07 07:23 33.94182 -118.39901 100 ft 12 kts 298°
2026-05-07 07:24 33.94185 -118.39908 97 ft 0 kts 298°
2026-05-07 07:24 33.94186 -118.39909 97 ft 0 kts 298°
2026-05-07 07:25 33.94155 -118.39894 95 ft 0 kts 284°